STARLINK-30702, 57955

Orbit data source: Space-Track

STARLINK-30702, 57955 is a payload satellite owned by SpaceX/Seattle (US) in LEO that was launched on Mon, 25 Sep 2023 UTC via an FALCON 9 launch vehicle from the Air Force Western Test Range (AFWTR). Payload-class satellites include a variety of spacecraft equipped with specific instruments for various scientific and technological missions. These include communications satellites like Starlink; space stations such as the ISS; scientific satellites like the Hubble; Earth observation satellites from companies like Planet Labs, Umbra, and HawkEye 360; GPS; miniature CubeSats for education and research; and military/defense satellites.

Loading next visibility...
Identifier
57955, 2023-148W
Orbit
LEO
Country
Flag of USUS
Related business
Manufacturer
SpaceX/Seattle
Mission
Operational Commercial Communications
Bus & Motor
STARLINK V2M, Unknown motor
Mass
730 kg wet, ~700 kg dry
Launch date (UTC)
2023-09-25 (3 years ago)
Launch vehicle
FALCON 9
Launch site
Air Force Western Test Range (AFWTR)
Object type
Payload
Rocket body
Debris
Shape & HBR
Box + 2 Pan, 17.7 m
Radar Cross Section
33.884 m², Large (>1 m²)

Expand to show TLE details & history
Last TLE update: 2 days ago

TLE from 2 days ago
0 STARLINK-30702
1 57955U 23148W   26171.44352539  .00001127  00000-0  44484-4 0  9990
2 57955  53.1598 256.2656 0001074  72.6646 287.4474 15.34394317154308
Epoch: 2026-06-20T10:38Z
TLE epoch observation values (Epoch: 2026-06-20T10:38:40.593Z)
Latitude
-0.00003°
Longitude
-172.06163°
Altitude
463.401 km
Speed
7.636 km/s
True Right ascension
17h 05m 03s
True Declination
0° 00' 00"
Sunlit
Object was in full shadow at epoch
Visualization orbit readout
Latitude
Unknown
Longitude
Unknown
Altitude
Unknown
Speed
Unknown
Apparent Right ascension
Unknown
Apparent Declination
Unknown
Sunlit
N/A
Visualization observer readout
Local Sidereal Time
21:25:45
Azimuth
Unknown
Elevation
Unknown
Doppler factor
Unknown
Orbital elements
Apogee altitude
463.712 km
Perigee altitude
462.242 km
Semi-major axis
6,841.114 km
Eccentricity
0.00011
Inclination
53.1598°
RAAN
256.2656°
Arg. of periapsis
72.6646°
True anomaly
287.43566°
Mean anomaly
287.4474°
Eccentric anomaly
287.44153°
Mean motion
3.83577 °/min
Orbital period
93.85 mins
BSTAR
0.000044484
Loading maneuver chart data...
Computing Atmospheric mass density...
Loading historical data...
Loading historical data...
Loading historical data...
Loading historical data...
Loading historical data...
Loading historical data...
Loading historical data...

Documentation

Showing up to 5 results
|